Location: Newark
(41.9000°N, 12.4833°E)
Time: 23:02:04
(UTC+00:00)

EO-79 - Pass Details

Date: 23 May 2019
Orbit: 591 x 611 km, 97.9° (Epoch: 18 June)

Event Time Altitude Azimuth Distance (km) Brightness Sun altitude
Rises 23:35:01 0° 14° (NNE) 2,840 ? -27.1°
Reaches altitude 10° 23:37:12 10° 16° (NNE) 1,933 ? -27.0°
Enters shadow 23:40:28 52° 32° (NNE) 737 ? -26.9°
